Regional Weather Roundup
Issued by NWS Little Rock, AR

Home | Current Version | Previous Version | Graphics & Text | Print | Product List | Glossary On
Versions: 1 2 3 4 5 6 7 8 9 10 11 12 13 14 15 16 17 18 19 20 21 22 23 24 25 26 27 28 29 30 31 32 33 34 35 36 37 38 39 40 41 42 43 44 45 46 47
000
ASUS44 KLZK 040005
RWRLZK

WEATHER ROUNDUP FOR ARKANSAS
NATIONAL WEATHER SERVICE LITTLE ROCK AR
700 PM CDT SUN MAY 03 2015

NOTE: "FAIR" INDICATES FEW OR NO CLOUDS BELOW 12,000 FEET WITH NO
SIGNIFICANT WEATHER AND/OR OBSTRUCTIONS TO VISIBILITY.

ARZ001-003-010-029-040100-
NORTHWEST ARKANSAS

CITY           SKY/WX    TMP DP  RH WIND       PRES   REMARKS
FAYETTEVILLE   PTSUNNY   75  59  57 S12G21    29.97F
6HR MIN TEMP:  74; 6HR MAX TEMP:  79;

FORT SMITH     SUNNY     79  54  41 S7        29.95S
6HR MIN TEMP:  79; 6HR MAX TEMP:  83;

HARRISON       PTSUNNY   74  56  53 S6        29.99S
6HR MIN TEMP:  74; 6HR MAX TEMP:  80;

BENTONVILLE    PTSUNNY   75  54  46 SW8       29.98S
6HR MIN TEMP:  73; 6HR MAX TEMP:  81;

ROGERS         PTSUNNY   76  56  49 S13       29.98S
6HR MIN TEMP:  76; 6HR MAX TEMP:  81;

SILOAM SPGS    PTSUNNY   73  54  49 S10       29.98S
6HR MIN TEMP:  73; 6HR MAX TEMP:  79;

HIGHFILL       PTSUNNY   74  56  53 S8        29.96S
6HR MIN TEMP:  74; 6HR MAX TEMP:  80;

SPRINGDALE     MOSUNNY   75  55  50 S12G21    29.99S
$$

ARZ004-005-016-040100-
NORTH CENTRAL ARKANSAS

CITY           SKY/WX    TMP DP  RH WIND       PRES   REMARKS
BATESVILLE     CLEAR     79  54  41 S6        30.00S
6HR MIN TEMP:  79; 6HR MAX TEMP:  82;

FLIPPIN        MOSUNNY   79  55  44 S3        29.96S
6HR MIN TEMP:  79; 6HR MAX TEMP:  82;

MTN HOME       MOSUNNY   76  56  49 S5        29.98R
6HR MIN TEMP:  76; 6HR MAX TEMP:  82;

$$

ARZ040-041-040100-
WEST CENTRAL ARKANSAS

CITY           SKY/WX    TMP DP  RH WIND       PRES   REMARKS
MENA           MOSUNNY   79  55  44 SE6       30.01S
MOUNT IDA      SUNNY     77  54  44 VRB3      29.99S
6HR MIN TEMP:  77; 6HR MAX TEMP:  82;

$$

ARZ009-017-025-026-028-040100-
NORTHEAST ARKANSAS

CITY           SKY/WX    TMP DP  RH WIND       PRES   REMARKS
CORNING          N/A     81  54  39 S13       30.00S
JONESBORO      CLEAR     77  54  44 S10       30.01S
6HR MIN TEMP:  77; 6HR MAX TEMP:  81;

NEWPORT        CLEAR     80  55  42 S9        30.01S
6HR MIN TEMP:  80; 6HR MAX TEMP:  85;

WALNUT RIDGE   CLEAR     79  54  41 SW13      30.00S
6HR MIN TEMP:  79; 6HR MAX TEMP:  82;

BLYTHEVILLE    PTCLDY    79  50  36 S10       30.02F
6HR MIN TEMP:  79; 6HR MAX TEMP:  81;

$$

ARZ022-023-033-042-044-040100-
CENTRAL ARKANSAS

CITY           SKY/WX    TMP DP  RH WIND       PRES   REMARKS
LITTLE ROCK    PTSUNNY   80  54  40 S8        30.00S
6HR MIN TEMP:  80; 6HR MAX TEMP:  85;

N LITTLE ROCK  PTSUNNY   80  58  46 S7        30.00S
6HR MIN TEMP:  79; 6HR MAX TEMP:  82;

JACKSONVILLE   SUNNY     81  57  43 S3        29.99F
6HR MIN TEMP:  80; 6HR MAX TEMP:  85; 6HR PCP: TRACE;

SEARCY         CLEAR     79  58  48 S5        30.01S
6HR MIN TEMP:  79; 6HR MAX TEMP:  84;

HOT SPRINGS    SUNNY     79  56  45 S8        30.00S
6HR MIN TEMP:  79; 6HR MAX TEMP:  83;

RUSSELLVILLE   SUNNY     79  56  45 S6        29.98R
6HR MIN TEMP:  79; 6HR MAX TEMP:  83;

CLINTON        FAIR      79  57  47 S5        30.00S
$$

ARZ036-040100-
EAST ARKANSAS

CITY           SKY/WX    TMP DP  RH WIND       PRES   REMARKS
WEST MEMPHIS   PTCLDY    78  54  43 S10       30.02S
6HR MIN TEMP:  78; 6HR MAX TEMP:  82;

$$

ARZ050-053-066-070-073-040100-
SOUTHWEST ARKANSAS

CITY           SKY/WX    TMP DP  RH WIND       PRES   REMARKS
ARKADELPHIA    FAIR      80  62  54 S5        30.01S
6HR MIN TEMP:  80; 6HR MAX TEMP:  84;

CAMDEN         SUNNY     81  54  39 NE5       30.01S
TEXARKANA      SUNNY     78  57  48 S9        30.00S
6HR MIN TEMP:  77; 6HR MAX TEMP:  82;

EL DORADO      SUNNY     77  57  50 S7        30.02S
6HR MIN TEMP:  77; 6HR MAX TEMP:  83;

DE QUEEN       SUNNY     79  57  46 S8        29.97S
6HR MIN TEMP:  78; 6HR MAX TEMP:  82;

$$

ARZ056-057-069-040100-
SOUTHEAST ARKANSAS

CITY           SKY/WX    TMP DP  RH WIND       PRES   REMARKS
PINE BLUFF     CLEAR     80  56  43 S6        30.01S
6HR MIN TEMP:  80; 6HR MAX TEMP:  84;

STUTTGART      PTCLDY    82  54  36 S9        30.02S
6HR MIN TEMP:  82; 6HR MAX TEMP:  84;

MONTICELLO     CLEAR     80  56  43 SW7       30.02S
6HR MIN TEMP:  80; 6HR MAX TEMP:  84;


$$




USA.gov is the U.S. government's official web portal to all federal, state and local government web resources and services.